Zurück zum Katalog

EZIE-A

AktivWissenschaftSSO
NORAD 63247·PAYLOAD·🇺🇸 United States

Gestartet Mar 15, 2025 von Vandenberg Space Force Base

Loading…

Nächste Überflüge (nächste 24 Stunden)

TLE

AktuellSource: Space-Track

Epoche: Sep 13, 2026, 16:59 UTC

1 63247U 25052AP  26256.70776018  .00002870  00000-0  24871-3 0  9995
2 63247  97.6755 147.4332 0001077 251.6004 108.5101 14.97884456 81911

Verfolge EZIE-A in Echtzeit mit AllMySat

Download on the App Store